Regional Weather Roundup
Issued by NWS

Home | Current Version | Previous Version | Graphics & Text | Print | Product List | Glossary On
Versions: 1 2 3 4 5 6 7 8 9 10 11 12 13 14 15 16 17 18 19 20 21 22 23 24 25 26 27 28 29 30 31 32 33 34 35 36 37 38 39 40 41 42 43 44 45 46 47 48 49 50
000
ASUS45 KSLC 241410
RWRUT

UTAH REGIONAL WEATHER ROUNDUP
NATIONAL WEATHER SERVICE SALT LAKE CITY UT
800 AM MDT THU JUL 24 2014

UTZ001>011-023>025-241500-

NORTHERN UTAH

CITY           SKY/WX    TMP DP  RH WIND       PRES   REMARKS
HILL AFB       MOSUNNY   76  50  39 S3        30.06S
LOGAN          NOT AVBL
OGDEN          MOSUNNY   74  42  31 W6        30.04R
PROVO AIRPORT  PTSUNNY   77  48  36 SE12G17   30.10R
SALT LAKE CITY CLOUDY    80  43  26 NW5       30.02R
VERNAL         PTSUNNY   75  51  43 W5        30.18S
WENDOVER       SUNNY     79  30  17 NW5       30.06R
WEST JORDAN    SUNNY     82  54  36 S13G18    30.06R

$$

UTZ012>022-026-027-241500-

SOUTHERN UTAH

CITY           SKY/WX    TMP DP  RH WIND       PRES   REMARKS
BRYCE CANYON   PTSUNNY   58  45  62 CALM      30.40R
CEDAR CITY     MOSUNNY   75  34  22 W6        30.18R
MILFORD        MOSUNNY   79  37  22 S12       30.11R
MOAB/CYNLANDS  MOSUNNY   83  48  29 CALM      30.14R
PRICE          PTSUNNY   72  51  47 NE10      30.28R
ST GEORGE      PTSUNNY   88  39  18 SE13      29.99R

$$

REGIONAL REPORTS     COLORADO/ARIZONA

CITY           SKY/WX    TMP DP  RH WIND       PRES   REMARKS
CRAIG, CO      MOSUNNY   63  49  60 NE5       30.28R
GRAND JUNCTION PTSUNNY   81  48  31 S18       30.20R
RIFLE          MOSUNNY   70  49  47 N3        30.27R
MONTROSE       PTSUNNY   67  60  78 SE8       30.31S
CORTEZ         SUNNY     76  51  41 CALM      30.32R
PAGE, AZ       PTSUNNY   85  51  31 S10       30.14R
GRAND CANYON   CLOUDY    71  51  49 CALM      30.34R
KINGMAN        MOSUNNY   79  33  19 CALM      30.04R
FLAGSTAFF      CLOUDY    65  52  62 CALM      30.39R

$$

REGIONAL REPORTS    NEVADA/IDAHO/WYOMING

CITY           SKY/WX    TMP DP  RH WIND       PRES   REMARKS
LAS VEGAS, NV  MOSUNNY   90  31  12 S8        29.86R
ELY            PTSUNNY   62  26  25 CALM      30.21R
ELKO           SUNNY     62  31  31 W6        30.17R
POCATELLO, ID  SUNNY     66  42  41 SW20      30.12R
BURLEY         SUNNY     63  44  50 SW15      30.14R
EVANSTON, WY   PTSUNNY   71  40  32 S15       30.25R
ROCK SPRINGS   PTSUNNY   76  40  27 S20       30.23R

$$



USA.gov is the U.S. government's official web portal to all federal, state and local government web resources and services.